| time (UTC) | temp C | wind direction | speed KPH | gust KPH | rain 1hr cm | rain 24hr cm | rain mn cm | humidity % | barometer mb |
| 20260507050034 | 10 | 336 | 0.0 | 0.0 | 0.00 | 0.48 | 0.00 | 88 | 1009.0 |
| 20260507044535 | 10 | 336 | 0.0 | 0.0 | 0.00 | 0.48 | 0.00 | 88 | 1009.1 |
| 20260507043025 | 10 | 336 | 0.0 | 0.0 | 0.00 | 0.48 | 0.00 | 88 | 1008.8 |
| 20260507041531 | 10 | 336 | 0.0 | 0.0 | 0.00 | 0.48 | 0.00 | 87 | 1009.0 |
| 20260507040022 | 10 | 336 | 0.0 | 0.0 | 0.00 | 0.48 | 0.00 | 87 | 1009.0 |
| 20260507034522 | 10 | 336 | 0.0 | 0.0 | 0.00 | 0.48 | 0.48 | 86 | 1008.6 |
| 20260507033025 | 10 | 336 | 0.0 | 0.0 | 0.00 | 0.48 | 0.48 | 86 | 1008.7 |
| 20260507031525 | 10 | 336 | 0.0 | 1.6 | 0.00 | 0.48 | 0.48 | 85 | 1008.9 |
| 20260507030017 | 11 | 336 | 0.0 | 0.0 | 0.00 | 0.48 | 0.48 | 84 | 1008.7 |
| 20260507024516 | 11 | 336 | 0.0 | 0.0 | 0.00 | 0.48 | 0.48 | 84 | 1008.5 |
| 20260507023016 | 11 | 49 | 0.0 | 3.2 | 0.00 | 0.48 | 0.48 | 84 | 1008.7 |
| 20260507021515 | 11 | 49 | 0.0 | 4.8 | 0.00 | 0.48 | 0.48 | 84 | 1008.7 |
| 20260507020016 | 11 | 67 | 0.0 | 3.2 | 0.00 | 0.48 | 0.48 | 84 | 1009.2 |
| 20260507014517 | 11 | 75 | 0.0 | 1.6 | 0.00 | 0.48 | 0.48 | 84 | 1009.1 |
| 20260507013020 | 11 | 75 | 0.0 | 3.2 | 0.00 | 0.48 | 0.48 | 84 | 1009.1 |
| 20260507011517 | 11 | 344 | 0.0 | 1.6 | 0.00 | 0.48 | 0.48 | 84 | 1008.9 |
| 20260507010009 | 11 | 330 | 0.0 | 4.8 | 0.00 | 0.48 | 0.48 | 84 | 1009.0 |
| 20260507004515 | 11 | 318 | 0.0 | 6.4 | 0.00 | 0.48 | 0.48 | 84 | 1008.5 |
| 20260507003003 | 12 | 327 | 0.0 | 14.5 | 0.00 | 0.48 | 0.48 | 85 | 1008.2 |
| 20260507001502 | 12 | 220 | 0.0 | 3.2 | 0.00 | 0.48 | 0.48 | 85 | 1007.7 |
| 20260507000100 | 12 | 217 | 0.0 | 4.8 | 0.00 | 0.48 | 0.48 | 84 | 1007.3 |
| 20260506234602 | 12 | 223 | 0.0 | 6.4 | 0.00 | 0.48 | 0.48 | 84 | 1006.9 |
| 20260506233058 | 12 | 250 | 0.0 | 11.3 | 0.00 | 0.48 | 0.48 | 83 | 1006.7 |
| 20260506231558 | 13 | 250 | 1.6 | 6.4 | 0.00 | 0.48 | 0.48 | 83 | 1006.9 |
| 20260506230056 | 13 | 83 | 1.6 | 6.4 | 0.00 | 0.48 | 0.48 | 84 | 1006.2 |
| 20260506224547 | 13 | 344 | 1.6 | 4.8 | 0.00 | 0.48 | 0.48 | 84 | 1006.1 |
| 20260506223053 | 14 | 310 | 1.6 | 8.0 | 0.00 | 0.48 | 0.48 | 82 | 1005.9 |
| 20260506221542 | 15 | 348 | 1.6 | 12.9 | 0.00 | 0.48 | 0.48 | 81 | 1005.6 |
| 20260506220039 | 16 | 275 | 1.6 | 12.9 | 0.00 | 0.48 | 0.48 | 83 | 1005.1 |
| 20260506214538 | 16 | 244 | 3.2 | 8.0 | 0.00 | 0.48 | 0.48 | 83 | 1004.6 |
| 20260506213056 | 17 | 240 | 3.2 | 8.0 | 0.00 | 0.48 | 0.48 | 83 | 1004.2 |
| 20260506211548 | 17 | 243 | 3.2 | 11.3 | 0.00 | 0.48 | 0.48 | 83 | 1004.1 |
| 20260506210037 | 17 | 243 | 3.2 | 8.0 | 0.00 | 0.48 | 0.48 | 86 | 1003.8 |
| 20260506204545 | 17 | 242 | 3.2 | 8.0 | 0.00 | 0.48 | 0.48 | 87 | 1003.8 |
| 20260506203035 | 17 | 224 | 4.8 | 8.0 | 0.00 | 0.48 | 0.48 | 87 | 1003.6 |
| 20260506201547 | 17 | 255 | 3.2 | 9.7 | 0.00 | 0.48 | 0.48 | 89 | 1003.6 |
| 20260506200034 | 17 | 238 | 1.6 | 6.4 | 0.00 | 0.48 | 0.48 | 90 | 1003.6 |
| 20260506194534 | 17 | 252 | 3.2 | 11.3 | 0.00 | 0.48 | 0.48 | 89 | 1003.6 |
| 20260506193037 | 17 | 240 | 4.8 | 8.0 | 0.00 | 0.48 | 0.48 | 89 | 1003.7 |
| 20260506191540 | 17 | 227 | 4.8 | 14.5 | 0.00 | 0.48 | 0.48 | 91 | 1003.7 |
| 20260506190034 | 16 | 231 | 3.2 | 11.3 | 0.00 | 0.48 | 0.48 | 92 | 1003.9 |
| 20260506184531 | 16 | 181 | 3.2 | 9.7 | 0.00 | 0.48 | 0.48 | 94 | 1003.8 |
| 20260506183040 | 16 | 211 | 1.6 | 9.7 | 0.00 | 0.48 | 0.48 | 94 | 1003.8 |
| 20260506181531 | 16 | 205 | 3.2 | 8.0 | 0.00 | 0.48 | 0.48 | 94 | 1003.9 |
| 20260506180035 | 15 | 240 | 4.8 | 8.0 | 0.00 | 0.48 | 0.48 | 95 | 1004.0 |
| 20260506174530 | 15 | 232 | 3.2 | 11.3 | 0.00 | 0.48 | 0.48 | 95 | 1004.0 |
| 20260506173029 | 15 | 245 | 4.8 | 16.1 | 0.00 | 0.48 | 0.48 | 95 | 1004.0 |
| 20260506171532 | 15 | 228 | 3.2 | 11.3 | 0.00 | 0.48 | 0.48 | 94 | 1004.1 |
| 20260506170033 | 15 | 229 | 4.8 | 11.3 | 0.00 | 0.48 | 0.48 | 94 | 1004.2 |
| 20260506164528 | 15 | 232 | 1.6 | 8.0 | 0.00 | 0.48 | 0.48 | 94 | 1004.3 |
| 20260506163027 | 15 | 239 | 4.8 | 11.3 | 0.00 | 0.48 | 0.48 | 94 | 1004.3 |
| 20260506161527 | 15 | 238 | 3.2 | 14.5 | 0.00 | 0.48 | 0.48 | 94 | 1004.2 |
| 20260506160026 | 15 | 175 | 6.4 | 17.7 | 0.03 | 0.48 | 0.48 | 94 | 1004.2 |
| 20260506154524 | 15 | 197 | 6.4 | 12.9 | 0.05 | 0.48 | 0.48 | 94 | 1004.2 |
| 20260506153023 | 15 | 198 | 4.8 | 8.0 | 0.05 | 0.48 | 0.48 | 95 | 1004.0 |
| 20260506151522 | 15 | 201 | 3.2 | 9.7 | 0.08 | 0.48 | 0.48 | 95 | 1003.8 |
| 20260506150021 | 15 | 166 | 4.8 | 11.3 | 0.05 | 0.46 | 0.46 | 94 | 1004.0 |
| 20260506144520 | 15 | 222 | 3.2 | 9.7 | 0.08 | 0.43 | 0.43 | 94 | 1004.2 |
| 20260506143028 | 15 | 231 | 4.8 | 8.0 | 0.10 | 0.43 | 0.43 | 94 | 1004.1 |
| 20260506141517 | 14 | 239 | 1.6 | 6.4 | 0.10 | 0.41 | 0.41 | 93 | 1004.3 |
| 20260506140016 | 14 | 232 | 3.2 | 8.0 | 0.13 | 0.41 | 0.41 | 93 | 1004.1 |
| 20260506134514 | 14 | 202 | 0.0 | 4.8 | 0.10 | 0.36 | 0.36 | 93 | 1004.2 |
| 20260506133012 | 14 | 220 | 0.0 | 4.8 | 0.15 | 0.33 | 0.33 | 92 | 1004.1 |
| 20260506131511 | 14 | 185 | 0.0 | 3.2 | 0.20 | 0.30 | 0.30 | 91 | 1004.3 |
| 20260506130014 | 14 | 185 | 0.0 | 3.2 | 0.23 | 0.28 | 0.28 | 91 | 1004.4 |
| 20260506124508 | 14 | 192 | 1.6 | 3.2 | 0.20 | 0.23 | 0.23 | 90 | 1004.5 |
| 20260506123006 | 15 | 191 | 1.6 | 6.4 | 0.15 | 0.18 | 0.18 | 88 | 1004.8 |
| 20260506121503 | 15 | 236 | 1.6 | 6.4 | 0.10 | 0.10 | 0.10 | 85 | 1004.9 |
| 20260506120059 | 16 | 214 | 0.0 | 4.8 | 0.05 | 0.05 | 0.05 | 79 | 1004.9 |
| 20260506114556 | 16 | 217 | 0.0 | 3.2 | 0.03 | 0.03 | 0.03 | 75 | 1004.4 |
| 20260506113052 | 17 | 224 | 0.0 | 1.6 | 0.03 | 0.03 | 0.03 | 73 | 1004.3 |
| 20260506111551 | 17 | 224 | 0.0 | 0.0 | 0.00 | 0.00 | 0.00 | 69 | 1004.3 |
| 20260506110051 | 17 | 224 | 1.6 | 6.4 | 0.00 | 0.00 | 0.00 | 64 | 1004.2 |
| 20260506104550 | 18 | 237 | 1.6 | 9.7 | 0.00 | 0.00 | 0.00 | 62 | 1003.8 |
| 20260506103053 | 18 | 246 | 3.2 | 8.0 | 0.00 | 0.00 | 0.00 | 61 | 1003.8 |
| 20260506101547 | 18 | 232 | 3.2 | 12.9 | 0.00 | 0.00 | 0.00 | 59 | 1003.7 |
| 20260506100046 | 17 | 240 | 3.2 | 4.8 | 0.00 | 0.00 | 0.00 | 60 | 1003.6 |
| 20260506094546 | 17 | 195 | 0.0 | 1.6 | 0.00 | 0.00 | 0.00 | 62 | 1003.6 |
| 20260506093045 | 17 | 193 | 0.0 | 4.8 | 0.00 | 0.00 | 0.00 | 60 | 1003.5 |
| 20260506091544 | 17 | 215 | 0.0 | 6.4 | 0.00 | 0.00 | 0.00 | 59 | 1003.5 |
| 20260506090049 | 18 | 198 | 0.0 | 0.0 | 0.00 | 0.00 | 0.00 | 59 | 1003.7 |
| 20260506084559 | 18 | 198 | 0.0 | 3.2 | 0.00 | 0.00 | 0.00 | 57 | 1003.7 |
| 20260506083042 | 18 | 198 | 0.0 | 4.8 | 0.00 | 0.00 | 0.00 | 57 | 1003.8 |
| 20260506081542 | 18 | 198 | 0.0 | 3.2 | 0.00 | 0.00 | 0.00 | 56 | 1003.7 |
| 20260506073043 | 18 | 212 | 1.6 | 9.7 | 0.00 | 0.00 | 0.00 | 56 | 1003.9 |
| 20260506071536 | 18 | 199 | 3.2 | 6.4 | 0.00 | 0.00 | 0.00 | 54 | 1003.9 |
| 20260506061544 | 18 | 155 | 1.6 | 4.8 | 0.00 | 0.00 | 0.00 | 55 | 1004.6 |